Weather History for Eugene, OR

Change the Weather History Date:

Thursday, March 28, 2013

  Actual Average Record
Temperature  
Mean Temperature 55 °F 48 °F  
Max Temperature 64 °F 58 °F 77 °F (1930)
Min Temperature 46 °F 38 °F 28 °F (1975)
Degree Days  
Heating Degree Days 10 17  
Month to date heating degree days 508 517  
Since 1 July heating degree days 3600 3844  
Cooling Degree Days 0 0  
Month to date cooling degree days 0 0  
Year to date cooling degree days 0 0  
Growing Degree Days 5 (Base 50)    
Moisture  
Dew Point 49 °F    
Average Humidity 80    
Maximum Humidity 100    
Minimum Humidity 60    
Precipitation  
Precipitation 0.03 in 0.15 in 1.32 in (1974)
Month to date precipitation 2.11 4.54  
Year to date precipitation 5.07 16.84  
Snow  
Snow 0.00 in - - ()
Month to date snowfall 0.0  
Since 1 July snowfall 0.0  
Snow Depth 0.00 in    
Sea Level Pressure  
Sea Level Pressure 30.06 in    
Wind  
Wind Speed 2 mph (NNW)    
Max Wind Speed 13 mph    
Max Gust Speed 14 mph    
Visibility 10 miles    
Events Rain    
T = Trace of Precipitation, MM = Missing Value Source: NWS Daily Summary

Daily Weather History Graph

Daily Weather History Graph

Search for Another Location

Airport:

Trip Planner

Search our weather history database for the weather conditions in past years. The results will help you decide how hot, cold, wet, or windy it might be!

Date:

Astronomy

Mar. 28, 2013 Rise Set
Actual Time 7:00 AM PDT 7:35 PM PDT
Civil Twilight 6:31 AM PDT 8:04 PM PDT
Nautical Twilight 5:57 AM PDT 8:39 PM PDT
Astronomical Twilight 5:21 AM PDT 9:14 PM PDT
Moon 9:39 PM PDT (3/28) 7:28 AM PDT (3/28)
Length of Visible Light 13h 32m
Length of Day
12h 34m
Full, 98% of the Moon is Illuminated
Mar 28
Full
Apr 2
Last Quarter
Apr 10
New
Apr 18
First Quarter
Apr 25
Full

Hourly Weather History & Observations

Time (PDT) Temp. Dew Point Humidity Pressure Visibility Wind Dir Wind Speed Gust Speed Precip Events Conditions
12:54 AM 48.9 °F 48.0 °F 97% 30.01 in 10.0 mi Calm Calm - N/A   Overcast
1:54 AM 48.9 °F 48.0 °F 97% 30.02 in 6.0 mi SW 3.5 mph - 0.00 in Rain Light Rain
2:46 AM 48.2 °F 48.2 °F 100% 30.01 in 10.0 mi Calm Calm - 0.00 in   Overcast
2:54 AM 48.9 °F 48.0 °F 97% 30.01 in 10.0 mi NNE 3.5 mph - 0.00 in   Overcast
3:50 AM 48.2 °F 48.2 °F 100% 30.02 in 10.0 mi Calm Calm - N/A   Overcast
3:54 AM 48.9 °F 48.0 °F 97% 30.02 in 10.0 mi Calm Calm - N/A   Overcast
4:22 AM 48.2 °F 46.4 °F 93% 30.01 in 10.0 mi East 3.5 mph - N/A   Overcast
4:54 AM 48.9 °F 46.9 °F 93% 30.01 in 10.0 mi Calm Calm - N/A   Overcast
5:54 AM 48.0 °F 46.9 °F 96% 30.02 in 10.0 mi WNW 3.5 mph - 0.00 in   Overcast
6:54 AM 46.9 °F 46.0 °F 97% 30.03 in 10.0 mi NE 4.6 mph - 0.03 in   Mostly Cloudy
7:54 AM 48.0 °F 46.9 °F 96% 30.04 in 10.0 mi Calm Calm - N/A   Overcast
8:35 AM 50.0 °F 48.2 °F 94% 30.04 in 10.0 mi NNW 3.5 mph - 0.00 in   Overcast
8:47 AM 50.0 °F 48.2 °F 94% 30.04 in 10.0 mi North 3.5 mph - 0.00 in   Overcast
8:54 AM 50.0 °F 48.0 °F 93% 30.05 in 10.0 mi North 3.5 mph - 0.00 in   Overcast
9:54 AM 52.0 °F 48.0 °F 86% 30.06 in 10.0 mi Calm Calm - N/A   Overcast
10:54 AM 54.0 °F 48.9 °F 83% 30.06 in 10.0 mi Calm Calm - N/A   Overcast
11:07 AM 53.6 °F 48.2 °F 82% 30.06 in 10.0 mi Calm Calm - N/A   Mostly Cloudy
11:40 AM 57.2 °F 48.2 °F 72% 30.06 in 10.0 mi Calm Calm - N/A   Mostly Cloudy
11:54 AM 57.9 °F 50.0 °F 75% 30.07 in 10.0 mi NW 3.5 mph - N/A   Mostly Cloudy
12:54 PM 59.0 °F 50.0 °F 72% 30.06 in 10.0 mi North 3.5 mph - N/A   Mostly Cloudy
1:54 PM 61.0 °F 51.1 °F 70% 30.05 in 10.0 mi North 3.5 mph - N/A   Mostly Cloudy
2:54 PM 62.1 °F 50.0 °F 65% 30.04 in 10.0 mi Variable 4.6 mph - N/A   Mostly Cloudy
3:54 PM 62.1 °F 48.9 °F 62% 30.04 in 10.0 mi Calm Calm - N/A   Mostly Cloudy
4:54 PM 59.0 °F 51.1 °F 75% 30.06 in 10.0 mi NNW 6.9 mph - 0.00 in   Overcast
5:54 PM 57.9 °F 51.1 °F 78% 30.08 in 10.0 mi West 5.8 mph - 0.00 in Rain Light Rain
6:54 PM 57.9 °F 50.0 °F 75% 30.09 in 10.0 mi WSW 3.5 mph - N/A   Mostly Cloudy
7:54 PM 55.9 °F 48.0 °F 75% 30.10 in 10.0 mi Calm Calm - N/A   Mostly Cloudy
8:54 PM 55.0 °F 48.0 °F 77% 30.12 in 10.0 mi Calm Calm - N/A   Mostly Cloudy
9:54 PM 53.1 °F 48.9 °F 86% 30.14 in 10.0 mi Calm Calm - N/A   Overcast
10:54 PM 50.0 °F 48.0 °F 93% 30.15 in 10.0 mi Calm Calm - N/A   Overcast
11:54 PM 51.1 °F 48.9 °F 92% 30.16 in 10.0 mi WSW 3.5 mph - N/A   Overcast